| time (UTC) | temp F | wind direction | speed MPH | gust MPH | rain 1hr in | rain 24hr in | rain mn in | humidity % | barometer mb |
| 20260506195508 | 67 | 254 | 13.0 | 23.0 | 0.00 | 0.00 | 0.00 | 54 | 1017.9 |
| 20260506195008 | 66 | 276 | 16.0 | 24.0 | 0.00 | 0.00 | 0.00 | 54 | 1017.8 |
| 20260506194508 | 66 | 252 | 14.0 | 29.0 | 0.00 | 0.00 | 0.00 | 55 | 1017.8 |
| 20260506194007 | 66 | 222 | 18.0 | 30.0 | 0.00 | 0.00 | 0.00 | 54 | 1017.7 |
| 20260506193507 | 67 | 254 | 15.0 | 30.0 | 0.00 | 0.00 | 0.00 | 55 | 1017.8 |
| 20260506193007 | 67 | 250 | 17.0 | 29.0 | 0.00 | 0.00 | 0.00 | 55 | 1017.7 |
| 20260506192508 | 66 | 239 | 15.0 | 29.0 | 0.00 | 0.00 | 0.00 | 55 | 1017.9 |
| 20260506192007 | 67 | 271 | 15.0 | 31.0 | 0.00 | 0.00 | 0.00 | 55 | 1017.7 |
| 20260506191506 | 67 | 241 | 18.0 | 32.0 | 0.00 | 0.00 | 0.00 | 55 | 1017.8 |
| 20260506191007 | 67 | 275 | 17.0 | 28.0 | 0.00 | 0.00 | 0.00 | 55 | 1017.7 |
| 20260506190504 | 67 | 240 | 12.0 | 26.0 | 0.00 | 0.00 | 0.00 | 57 | 1017.9 |
| 20260506190008 | 65 | 269 | 13.0 | 26.0 | 0.00 | 0.00 | 0.00 | 60 | 1017.8 |
| 20260506185504 | 66 | 248 | 19.0 | 28.0 | 0.00 | 0.00 | 0.00 | 56 | 1017.8 |
| 20260506185003 | 66 | 235 | 17.0 | 28.0 | 0.00 | 0.00 | 0.00 | 57 | 1017.8 |
| 20260506184503 | 66 | 231 | 15.0 | 29.0 | 0.00 | 0.00 | 0.00 | 56 | 1017.9 |
| 20260506184006 | 66 | 229 | 16.0 | 29.0 | 0.00 | 0.00 | 0.00 | 56 | 1017.9 |
| 20260506183504 | 66 | 223 | 13.0 | 26.0 | 0.00 | 0.00 | 0.00 | 56 | 1018.0 |
| 20260506183005 | 66 | 251 | 16.0 | 26.0 | 0.00 | 0.00 | 0.00 | 56 | 1017.9 |
| 20260506182501 | 66 | 267 | 14.0 | 25.0 | 0.00 | 0.00 | 0.00 | 55 | 1018.0 |
| 20260506182003 | 66 | 191 | 10.0 | 27.0 | 0.00 | 0.00 | 0.00 | 58 | 1017.9 |
| 20260506181624 | 66 | 272 | 13.0 | 27.0 | 0.00 | 0.00 | 0.00 | 56 | 1017.8 |
| 20260506181059 | 66 | 244 | 14.0 | 27.0 | 0.00 | 0.00 | 0.00 | 58 | 1017.9 |
| 20260506180601 | 66 | 227 | 14.0 | 25.0 | 0.00 | 0.00 | 0.00 | 58 | 1017.8 |
| 20260506180059 | 66 | 191 | 15.0 | 25.0 | 0.00 | 0.00 | 0.00 | 59 | 1017.6 |
| 20260506175556 | 66 | 235 | 14.0 | 22.0 | 0.00 | 0.00 | 0.00 | 58 | 1018.0 |
| 20260506175055 | 65 | 260 | 8.0 | 25.0 | 0.00 | 0.00 | 0.00 | 58 | 1018.0 |
| 20260506174555 | 66 | 242 | 11.0 | 28.0 | 0.00 | 0.00 | 0.00 | 59 | 1018.1 |
| 20260506174055 | 65 | 248 | 16.0 | 28.0 | 0.00 | 0.00 | 0.00 | 57 | 1017.9 |
| 20260506173553 | 65 | 266 | 14.0 | 29.0 | 0.00 | 0.00 | 0.00 | 58 | 1018.2 |
| 20260506173100 | 65 | 259 | 16.0 | 30.0 | 0.00 | 0.00 | 0.00 | 58 | 1018.1 |
| 20260506172552 | 65 | 308 | 19.0 | 30.0 | 0.00 | 0.00 | 0.00 | 56 | 1018.1 |
| 20260506172050 | 64 | 224 | 10.0 | 24.0 | 0.00 | 0.00 | 0.00 | 60 | 1018.1 |
| 20260506171548 | 63 | 234 | 10.0 | 23.0 | 0.00 | 0.00 | 0.00 | 64 | 1018.0 |
| 20260506171047 | 62 | 281 | 9.0 | 22.0 | 0.00 | 0.00 | 0.00 | 67 | 1018.1 |
| 20260506170546 | 62 | 242 | 9.0 | 22.0 | 0.00 | 0.00 | 0.00 | 68 | 1018.0 |
| 20260506170049 | 61 | 191 | 10.0 | 25.0 | 0.00 | 0.00 | 0.00 | 67 | 1017.8 |
| 20260506165545 | 61 | 265 | 13.0 | 25.0 | 0.00 | 0.00 | 0.00 | 66 | 1017.6 |
| 20260506165045 | 61 | 249 | 14.0 | 27.0 | 0.00 | 0.00 | 0.00 | 67 | 1017.7 |
| 20260506164547 | 60 | 252 | 14.0 | 26.0 | 0.00 | 0.00 | 0.00 | 68 | 1017.7 |
| 20260506164043 | 59 | 249 | 15.0 | 24.0 | 0.00 | 0.00 | 0.00 | 68 | 1017.7 |
| 20260506163543 | 60 | 260 | 11.0 | 23.0 | 0.00 | 0.00 | 0.00 | 66 | 1017.8 |
| 20260506163044 | 62 | 191 | 10.0 | 23.0 | 0.00 | 0.00 | 0.00 | 65 | 1017.7 |
| 20260506162542 | 62 | 191 | 10.0 | 21.0 | 0.00 | 0.00 | 0.00 | 64 | 1017.7 |
| 20260506162044 | 62 | 258 | 10.0 | 21.0 | 0.00 | 0.00 | 0.00 | 66 | 1017.9 |
| 20260506161546 | 62 | 245 | 9.0 | 21.0 | 0.00 | 0.00 | 0.00 | 65 | 1018.1 |
| 20260506161041 | 62 | 246 | 7.0 | 20.0 | 0.00 | 0.00 | 0.00 | 63 | 1018.2 |
| 20260506160541 | 63 | 250 | 10.0 | 21.0 | 0.00 | 0.00 | 0.00 | 64 | 1018.2 |
| 20260506160046 | 63 | 191 | 6.0 | 18.0 | 0.00 | 0.00 | 0.00 | 62 | 1018.3 |
| 20260506155540 | 62 | 191 | 4.0 | 22.0 | 0.00 | 0.00 | 0.00 | 64 | 1018.3 |
| 20260506155036 | 62 | 260 | 12.0 | 22.0 | 0.00 | 0.00 | 0.00 | 64 | 1018.0 |
| 20260506154535 | 61 | 244 | 10.0 | 19.0 | 0.00 | 0.00 | 0.00 | 65 | 1018.0 |
| 20260506154034 | 61 | 191 | 4.0 | 21.0 | 0.00 | 0.00 | 0.00 | 68 | 1018.1 |
| 20260506153532 | 60 | 259 | 8.0 | 15.0 | 0.00 | 0.00 | 0.00 | 68 | 1018.0 |
| 20260506153031 | 60 | 259 | 5.0 | 15.0 | 0.00 | 0.00 | 0.00 | 68 | 1018.0 |
| 20260506152530 | 60 | 262 | 5.0 | 14.0 | 0.00 | 0.00 | 0.00 | 67 | 1017.9 |
| 20260506152029 | 58 | 246 | 4.0 | 16.0 | 0.00 | 0.00 | 0.00 | 70 | 1017.8 |
| 20260506151528 | 58 | 265 | 5.0 | 16.0 | 0.00 | 0.00 | 0.00 | 70 | 1017.8 |
| 20260506151026 | 58 | 191 | 3.0 | 16.0 | 0.00 | 0.00 | 0.00 | 70 | 1017.9 |
| 20260506150526 | 58 | 191 | 4.0 | 16.0 | 0.00 | 0.00 | 0.00 | 70 | 1017.7 |
| 20260506150027 | 58 | 315 | 4.0 | 16.0 | 0.00 | 0.00 | 0.00 | 71 | 1017.5 |
| 20260506145524 | 58 | 270 | 4.0 | 13.0 | 0.00 | 0.00 | 0.00 | 71 | 1017.6 |
| 20260506145024 | 58 | 319 | 4.0 | 12.0 | 0.00 | 0.00 | 0.00 | 71 | 1017.6 |
| 20260506144522 | 58 | 191 | 4.0 | 17.0 | 0.00 | 0.00 | 0.00 | 70 | 1017.7 |
| 20260506144021 | 58 | 265 | 6.0 | 19.0 | 0.00 | 0.00 | 0.00 | 71 | 1017.6 |
| 20260506143521 | 57 | 244 | 10.0 | 20.0 | 0.00 | 0.00 | 0.00 | 72 | 1017.6 |
| 20260506143022 | 57 | 240 | 12.0 | 20.0 | 0.00 | 0.00 | 0.00 | 73 | 1017.7 |
| 20260506142519 | 57 | 257 | 11.0 | 17.0 | 0.00 | 0.00 | 0.00 | 73 | 1017.7 |
| 20260506142017 | 57 | 273 | 7.0 | 17.0 | 0.00 | 0.00 | 0.00 | 73 | 1017.7 |
| 20260506141516 | 57 | 265 | 6.0 | 18.0 | 0.00 | 0.00 | 0.00 | 72 | 1017.6 |
| 20260506141015 | 57 | 262 | 8.0 | 18.0 | 0.00 | 0.00 | 0.00 | 72 | 1017.6 |
| 20260506140515 | 57 | 248 | 7.0 | 15.0 | 0.00 | 0.00 | 0.00 | 71 | 1017.6 |
| 20260506140016 | 57 | 191 | 3.0 | 11.0 | 0.00 | 0.00 | 0.00 | 71 | 1017.6 |
| 20260506135513 | 57 | 238 | 4.0 | 11.0 | 0.00 | 0.00 | 0.00 | 69 | 1017.5 |
| 20260506135012 | 58 | 269 | 4.0 | 11.0 | 0.00 | 0.00 | 0.00 | 68 | 1017.5 |
| 20260506134511 | 58 | 259 | 3.0 | 11.0 | 0.00 | 0.00 | 0.00 | 67 | 1017.4 |
| 20260506134017 | 58 | 248 | 2.0 | 13.0 | 0.00 | 0.00 | 0.00 | 67 | 1017.4 |
| 20260506133511 | 58 | 244 | 4.0 | 12.0 | 0.00 | 0.00 | 0.00 | 66 | 1017.4 |
| 20260506133012 | 58 | 263 | 4.0 | 12.0 | 0.00 | 0.00 | 0.00 | 67 | 1017.3 |
| 20260506132511 | 58 | 317 | 4.0 | 13.0 | 0.00 | 0.00 | 0.00 | 67 | 1017.3 |
| 20260506132009 | 58 | 191 | 1.0 | 13.0 | 0.00 | 0.00 | 0.00 | 67 | 1017.3 |
| 20260506131508 | 58 | 191 | 2.0 | 16.0 | 0.00 | 0.00 | 0.00 | 67 | 1017.2 |
| 20260506131007 | 58 | 267 | 5.0 | 16.0 | 0.00 | 0.00 | 0.00 | 67 | 1017.2 |
| 20260506130507 | 58 | 266 | 6.0 | 12.0 | 0.00 | 0.00 | 0.00 | 68 | 1017.2 |
| 20260506130008 | 58 | 256 | 6.0 | 12.0 | 0.00 | 0.00 | 0.00 | 68 | 1017.2 |
| 20260506125505 | 58 | 269 | 5.0 | 12.0 | 0.00 | 0.00 | 0.00 | 68 | 1017.2 |
| 20260506125005 | 57 | 248 | 5.0 | 12.0 | 0.00 | 0.00 | 0.00 | 68 | 1017.1 |
| 20260506124504 | 58 | 269 | 4.0 | 11.0 | 0.00 | 0.00 | 0.00 | 67 | 1017.2 |
| 20260506124006 | 57 | 257 | 2.0 | 12.0 | 0.00 | 0.00 | 0.00 | 68 | 1017.2 |
| 20260506123503 | 58 | 252 | 6.0 | 12.0 | 0.00 | 0.00 | 0.00 | 68 | 1017.0 |
| 20260506123002 | 57 | 271 | 3.0 | 11.0 | 0.00 | 0.00 | 0.00 | 68 | 1017.0 |
| 20260506122501 | 57 | 191 | 5.0 | 16.0 | 0.00 | 0.00 | 0.00 | 68 | 1016.9 |
| 20260506122100 | 58 | 266 | 7.0 | 16.0 | 0.00 | 0.00 | 0.00 | 67 | 1016.9 |
| 20260506121600 | 58 | 260 | 7.0 | 18.0 | 0.00 | 0.00 | 0.00 | 67 | 1016.8 |
| 20260506121101 | 58 | 260 | 10.0 | 18.0 | 0.00 | 0.00 | 0.00 | 67 | 1016.7 |
| 20260506120557 | 58 | 191 | 9.0 | 19.0 | 0.00 | 0.00 | 0.00 | 67 | 1016.6 |
| 20260506120058 | 58 | 233 | 10.0 | 19.0 | 0.00 | 0.00 | 0.00 | 67 | 1016.6 |
| 20260506115555 | 58 | 272 | 8.0 | 17.0 | 0.00 | 0.00 | 0.00 | 67 | 1016.6 |
| 20260506115055 | 58 | 265 | 8.0 | 14.0 | 0.00 | 0.00 | 0.00 | 67 | 1016.5 |
| 20260506114559 | 58 | 269 | 8.0 | 21.0 | 0.00 | 0.00 | 0.00 | 67 | 1016.5 |
| 20260506114053 | 58 | 267 | 8.0 | 21.0 | 0.00 | 0.00 | 0.00 | 67 | 1016.3 |
| 20260506113554 | 58 | 275 | 9.0 | 18.0 | 0.00 | 0.00 | 0.00 | 66 | 1016.3 |
| 20260506113053 | 58 | 326 | 6.0 | 17.0 | 0.00 | 0.00 | 0.00 | 67 | 1016.3 |
| 20260506112552 | 58 | 261 | 7.0 | 19.0 | 0.00 | 0.00 | 0.00 | 67 | 1016.2 |
| 20260506112052 | 58 | 255 | 8.0 | 19.0 | 0.00 | 0.00 | 0.00 | 68 | 1016.2 |
| 20260506111551 | 58 | 191 | 6.0 | 14.0 | 0.00 | 0.00 | 0.00 | 67 | 1016.2 |
| 20260506111050 | 58 | 262 | 5.0 | 14.0 | 0.00 | 0.00 | 0.00 | 67 | 1016.1 |
| 20260506110614 | 58 | 244 | 4.0 | 14.0 | 0.00 | 0.00 | 0.00 | 66 | 1016.1 |
| 20260506110049 | 58 | 257 | 4.0 | 12.0 | 0.00 | 0.00 | 0.00 | 67 | 1016.0 |
| 20260506105551 | 58 | 270 | 5.0 | 16.0 | 0.00 | 0.00 | 0.00 | 67 | 1015.9 |
| 20260506105051 | 58 | 268 | 4.0 | 16.0 | 0.00 | 0.00 | 0.00 | 67 | 1015.8 |
| 20260506104554 | 58 | 191 | 2.0 | 10.0 | 0.00 | 0.00 | 0.00 | 67 | 1015.8 |
| 20260506104047 | 58 | 333 | 5.0 | 15.0 | 0.00 | 0.00 | 0.00 | 68 | 1015.7 |
| 20260506103547 | 58 | 317 | 3.0 | 15.0 | 0.00 | 0.00 | 0.00 | 68 | 1015.7 |
| 20260506103053 | 57 | 196 | 0.0 | 9.0 | 0.00 | 0.00 | 0.00 | 68 | 1015.6 |
| 20260506102547 | 58 | 191 | 2.0 | 9.0 | 0.00 | 0.00 | 0.00 | 68 | 1015.6 |
| 20260506102047 | 57 | 191 | 1.0 | 13.0 | 0.00 | 0.00 | 0.00 | 68 | 1015.6 |
| 20260506101547 | 57 | 186 | 3.0 | 13.0 | 0.00 | 0.00 | 0.00 | 68 | 1015.6 |
| 20260506101046 | 57 | 323 | 1.0 | 10.0 | 0.00 | 0.00 | 0.00 | 69 | 1015.6 |
| 20260506100549 | 57 | 252 | 3.0 | 10.0 | 0.00 | 0.00 | 0.00 | 70 | 1015.6 |
| 20260506100044 | 57 | 317 | 1.0 | 7.0 | 0.00 | 0.00 | 0.00 | 69 | 1015.7 |
| 20260506095545 | 58 | 317 | 2.0 | 7.0 | 0.00 | 0.00 | 0.00 | 69 | 1015.6 |
| 20260506095044 | 57 | 267 | 0.0 | 11.0 | 0.00 | 0.00 | 0.00 | 69 | 1015.6 |
| 20260506094543 | 58 | 256 | 3.0 | 11.0 | 0.00 | 0.00 | 0.00 | 68 | 1015.6 |
| 20260506094043 | 58 | 191 | 3.0 | 13.0 | 0.00 | 0.00 | 0.00 | 68 | 1015.5 |
| 20260506093543 | 58 | 358 | 2.0 | 13.0 | 0.00 | 0.00 | 0.00 | 68 | 1015.5 |
| 20260506093042 | 58 | 258 | 2.0 | 11.0 | 0.00 | 0.00 | 0.00 | 67 | 1015.5 |
| 20260506092542 | 58 | 281 | 2.0 | 11.0 | 0.00 | 0.00 | 0.00 | 67 | 1015.4 |
| 20260506092042 | 58 | 252 | 2.0 | 10.0 | 0.00 | 0.00 | 0.00 | 68 | 1015.4 |
| 20260506091551 | 58 | 356 | 2.0 | 9.0 | 0.00 | 0.00 | 0.00 | 68 | 1015.4 |
| 20260506091044 | 58 | 250 | 1.0 | 9.0 | 0.00 | 0.00 | 0.00 | 68 | 1015.5 |
| 20260506090543 | 58 | 191 | 1.0 | 12.0 | 0.00 | 0.00 | 0.00 | 68 | 1015.5 |
| 20260506090039 | 58 | 267 | 2.0 | 13.0 | 0.00 | 0.00 | 0.00 | 68 | 1015.4 |
| 20260506085538 | 58 | 191 | 1.0 | 7.0 | 0.00 | 0.00 | 0.00 | 66 | 1015.4 |
| 20260506085037 | 59 | 191 | 1.0 | 12.0 | 0.00 | 0.00 | 0.00 | 65 | 1015.4 |
| 20260506084544 | 59 | 263 | 2.0 | 12.0 | 0.00 | 0.00 | 0.00 | 65 | 1015.3 |
| 20260506084036 | 59 | 230 | 5.0 | 14.0 | 0.00 | 0.00 | 0.00 | 66 | 1015.2 |
| 20260506083538 | 59 | 254 | 6.0 | 14.0 | 0.00 | 0.00 | 0.00 | 66 | 1015.2 |
| 20260506083036 | 59 | 273 | 7.0 | 14.0 | 0.00 | 0.00 | 0.00 | 66 | 1015.1 |
| 20260506082538 | 59 | 229 | 3.0 | 14.0 | 0.00 | 0.00 | 0.00 | 66 | 1015.1 |
| 20260506082034 | 59 | 269 | 5.0 | 15.0 | 0.00 | 0.00 | 0.00 | 66 | 1015.1 |
| 20260506081536 | 59 | 233 | 6.0 | 21.0 | 0.00 | 0.00 | 0.00 | 66 | 1015.0 |
| 20260506081035 | 59 | 273 | 7.0 | 21.0 | 0.00 | 0.00 | 0.00 | 66 | 1014.9 |
| 20260506080534 | 59 | 191 | 4.0 | 21.0 | 0.00 | 0.00 | 0.00 | 66 | 1014.9 |
| 20260506073030 | 59 | 255 | 7.0 | 18.0 | 0.00 | 0.00 | 0.00 | 66 | 1014.7 |
| 20260506072533 | 59 | 246 | 10.0 | 19.0 | 0.00 | 0.00 | 0.00 | 66 | 1014.6 |
| 20260506072031 | 59 | 237 | 8.0 | 19.0 | 0.00 | 0.00 | 0.00 | 66 | 1014.6 |
| 20260506071528 | 59 | 258 | 7.0 | 17.0 | 0.00 | 0.00 | 0.00 | 65 | 1014.5 |
| 20260506071027 | 59 | 191 | 5.0 | 19.0 | 0.00 | 0.00 | 0.00 | 65 | 1014.6 |
| 20260506070528 | 59 | 31 | 10.0 | 23.0 | 0.00 | 0.00 | 0.00 | 65 | 1014.5 |
| 20260506062025 | 59 | 262 | 9.0 | 19.0 | 0.00 | 0.00 | 0.00 | 66 | 1014.1 |
| 20260506061522 | 59 | 253 | 11.0 | 18.0 | 0.00 | 0.00 | 0.00 | 66 | 1014.1 |
| 20260506061021 | 59 | 191 | 6.0 | 22.0 | 0.00 | 0.00 | 0.00 | 66 | 1014.2 |
| 20260506060521 | 59 | 314 | 11.0 | 22.0 | 0.00 | 0.00 | 0.00 | 66 | 1014.2 |
| 20260506051017 | 59 | 191 | 7.0 | 23.0 | 0.00 | 0.00 | 0.00 | 66 | 1013.5 |
| 20260506050517 | 59 | 267 | 3.0 | 14.0 | 0.00 | 0.00 | 0.00 | 66 | 1013.6 |
| 20260506045015 | 59 | 191 | 3.0 | 17.0 | 0.00 | 0.00 | 0.00 | 65 | 1013.3 |
| 20260506044515 | 59 | 191 | 5.0 | 17.0 | 0.00 | 0.00 | 0.00 | 65 | 1013.3 |
| 20260506044016 | 59 | 267 | 6.0 | 15.0 | 0.00 | 0.00 | 0.00 | 66 | 1013.2 |
| 20260506043520 | 59 | 265 | 6.0 | 17.0 | 0.00 | 0.00 | 0.00 | 66 | 1013.2 |
| 20260506043016 | 59 | 191 | 8.0 | 24.0 | 0.00 | 0.00 | 0.00 | 67 | 1013.1 |
| 20260506042516 | 59 | 186 | 12.0 | 24.0 | 0.00 | 0.00 | 0.00 | 67 | 1013.0 |
| 20260506042016 | 59 | 231 | 10.0 | 25.0 | 0.00 | 0.00 | 0.00 | 67 | 1013.0 |
| 20260506041516 | 59 | 278 | 15.0 | 25.0 | 0.00 | 0.00 | 0.00 | 66 | 1012.9 |
| 20260506041014 | 59 | 220 | 9.0 | 23.0 | 0.00 | 0.00 | 0.00 | 67 | 1013.0 |
| 20260506040514 | 59 | 253 | 7.0 | 22.0 | 0.00 | 0.00 | 0.00 | 66 | 1013.0 |
| 20260506040021 | 59 | 301 | 7.0 | 18.0 | 0.00 | 0.00 | 0.00 | 66 | 1013.0 |
| 20260506035515 | 59 | 191 | 5.0 | 17.0 | 0.00 | 0.00 | 0.00 | 66 | 1012.8 |
| 20260506035015 | 59 | 191 | 4.0 | 15.0 | 0.00 | 0.00 | 0.00 | 66 | 1012.8 |
| 20260506034520 | 59 | 5 | 4.0 | 16.0 | 0.00 | 0.00 | 0.00 | 65 | 1012.8 |
| 20260506034014 | 59 | 353 | 4.0 | 19.0 | 0.00 | 0.00 | 0.00 | 66 | 1012.6 |
| 20260506033513 | 59 | 260 | 9.0 | 21.0 | 0.00 | 0.00 | 0.00 | 66 | 1012.5 |
| 20260506033013 | 59 | 254 | 8.0 | 22.0 | 0.00 | 0.00 | 0.00 | 65 | 1012.4 |
| 20260506032513 | 59 | 271 | 5.0 | 19.0 | 0.00 | 0.00 | 0.00 | 66 | 1012.4 |
| 20260506032013 | 59 | 191 | 9.0 | 28.0 | 0.00 | 0.00 | 0.00 | 66 | 1012.3 |
| 20260506031513 | 59 | 258 | 11.0 | 28.0 | 0.00 | 0.00 | 0.00 | 66 | 1012.3 |
| 20260506031013 | 59 | 298 | 12.0 | 25.0 | 0.00 | 0.00 | 0.00 | 66 | 1012.2 |
| 20260506030513 | 59 | 246 | 12.0 | 23.0 | 0.00 | 0.00 | 0.00 | 65 | 1012.1 |
| 20260506030026 | 60 | 262 | 8.0 | 21.0 | 0.00 | 0.00 | 0.00 | 65 | 1012.1 |
| 20260506025512 | 60 | 260 | 9.0 | 26.0 | 0.00 | 0.00 | 0.00 | 65 | 1011.9 |
| 20260506025012 | 60 | 191 | 14.0 | 30.0 | 0.00 | 0.00 | 0.00 | 64 | 1011.9 |
| 20260506024530 | 60 | 244 | 12.0 | 30.0 | 0.00 | 0.00 | 0.00 | 64 | 1011.7 |
| 20260506024012 | 60 | 262 | 6.0 | 30.0 | 0.00 | 0.00 | 0.00 | 65 | 1011.7 |
| 20260506023512 | 60 | 258 | 13.0 | 30.0 | 0.00 | 0.00 | 0.00 | 64 | 1011.6 |
| 20260506023014 | 60 | 191 | 10.0 | 30.0 | 0.00 | 0.00 | 0.00 | 63 | 1011.6 |
| 20260506022511 | 61 | 271 | 15.0 | 30.0 | 0.00 | 0.00 | 0.00 | 63 | 1011.5 |
| 20260506022011 | 61 | 293 | 13.0 | 22.0 | 0.00 | 0.00 | 0.00 | 64 | 1011.4 |
| 20260506021511 | 61 | 265 | 13.0 | 29.0 | 0.00 | 0.00 | 0.00 | 63 | 1011.4 |
| 20260506021013 | 61 | 286 | 12.0 | 25.0 | 0.00 | 0.00 | 0.00 | 62 | 1011.4 |
| 20260506020510 | 61 | 267 | 10.0 | 25.0 | 0.00 | 0.00 | 0.00 | 62 | 1011.4 |
| 20260506020010 | 61 | 271 | 15.0 | 25.0 | 0.00 | 0.00 | 0.00 | 61 | 1011.4 |
| 20260506015510 | 61 | 250 | 12.0 | 28.0 | 0.00 | 0.00 | 0.00 | 62 | 1011.3 |
| 20260506015010 | 62 | 262 | 17.0 | 27.0 | 0.00 | 0.00 | 0.00 | 61 | 1011.3 |
| 20260506014509 | 62 | 259 | 12.0 | 24.0 | 0.00 | 0.00 | 0.00 | 61 | 1011.3 |
| 20260506014010 | 62 | 242 | 10.0 | 30.0 | 0.00 | 0.00 | 0.00 | 60 | 1011.4 |
| 20260506013512 | 62 | 259 | 12.0 | 30.0 | 0.00 | 0.00 | 0.00 | 60 | 1011.3 |
| 20260506013013 | 62 | 191 | 15.0 | 32.0 | 0.00 | 0.00 | 0.00 | 60 | 1011.3 |
| 20260506012510 | 62 | 301 | 13.0 | 28.0 | 0.00 | 0.00 | 0.00 | 60 | 1011.2 |
| 20260506012009 | 62 | 249 | 9.0 | 28.0 | 0.00 | 0.00 | 0.00 | 60 | 1011.3 |
| 20260506011510 | 63 | 266 | 9.0 | 28.0 | 0.00 | 0.00 | 0.00 | 59 | 1011.2 |
| 20260506011008 | 63 | 232 | 11.0 | 27.0 | 0.00 | 0.00 | 0.00 | 59 | 1011.2 |
| 20260506010509 | 63 | 191 | 9.0 | 22.0 | 0.00 | 0.00 | 0.00 | 59 | 1011.3 |
| 20260506010011 | 63 | 270 | 10.0 | 26.0 | 0.00 | 0.00 | 0.00 | 59 | 1011.1 |
| 20260506005509 | 63 | 311 | 10.0 | 22.0 | 0.00 | 0.00 | 0.00 | 59 | 1011.3 |
| 20260506005008 | 63 | 317 | 10.0 | 31.0 | 0.00 | 0.00 | 0.00 | 58 | 1011.2 |
| 20260506004508 | 63 | 222 | 12.0 | 31.0 | 0.00 | 0.00 | 0.00 | 59 | 1011.1 |
| 20260506004009 | 63 | 293 | 11.0 | 22.0 | 0.00 | 0.00 | 0.00 | 58 | 1011.2 |
| 20260506003508 | 63 | 276 | 10.0 | 26.0 | 0.00 | 0.00 | 0.00 | 58 | 1011.2 |
| 20260506003008 | 64 | 239 | 13.0 | 26.0 | 0.00 | 0.00 | 0.00 | 57 | 1011.2 |
| 20260506002508 | 64 | 236 | 9.0 | 23.0 | 0.00 | 0.00 | 0.00 | 57 | 1011.2 |
| 20260506002008 | 64 | 267 | 10.0 | 23.0 | 0.00 | 0.00 | 0.00 | 56 | 1011.0 |
| 20260506001508 | 65 | 191 | 11.0 | 23.0 | 0.00 | 0.00 | 0.00 | 56 | 1011.1 |
| 20260506001007 | 65 | 295 | 12.0 | 25.0 | 0.00 | 0.00 | 0.00 | 56 | 1011.0 |
| 20260506000508 | 65 | 258 | 11.0 | 25.0 | 0.00 | 0.00 | 0.00 | 55 | 1011.1 |
| 20260506000006 | 65 | 248 | 12.0 | 30.0 | 0.00 | 0.00 | 0.00 | 55 | 1011.0 |
| 20260505235507 | 65 | 275 | 11.0 | 29.0 | 0.00 | 0.00 | 0.00 | 55 | 1011.1 |
| 20260505235007 | 65 | 268 | 12.0 | 29.0 | 0.00 | 0.00 | 0.00 | 56 | 1011.2 |
| 20260505234507 | 65 | 186 | 10.0 | 21.0 | 0.00 | 0.00 | 0.00 | 55 | 1011.3 |
| 20260505234011 | 66 | 243 | 11.0 | 23.0 | 0.00 | 0.00 | 0.00 | 55 | 1011.4 |
| 20260505233506 | 66 | 4 | 9.0 | 25.0 | 0.00 | 0.00 | 0.00 | 55 | 1011.4 |
| 20260505233006 | 66 | 244 | 10.0 | 25.0 | 0.00 | 0.00 | 0.00 | 55 | 1011.4 |
| 20260505232506 | 66 | 281 | 12.0 | 27.0 | 0.00 | 0.00 | 0.00 | 55 | 1011.5 |
| 20260505232006 | 66 | 262 | 13.0 | 27.0 | 0.00 | 0.00 | 0.00 | 55 | 1011.4 |
| 20260505231506 | 66 | 224 | 12.0 | 25.0 | 0.00 | 0.00 | 0.00 | 55 | 1011.4 |
| 20260505231009 | 66 | 269 | 13.0 | 25.0 | 0.00 | 0.00 | 0.00 | 55 | 1011.4 |
| 20260505230505 | 66 | 243 | 12.0 | 22.0 | 0.00 | 0.00 | 0.00 | 55 | 1011.5 |
| 20260505230018 | 66 | 238 | 13.0 | 24.0 | 0.00 | 0.00 | 0.00 | 54 | 1011.6 |
| 20260505225506 | 66 | 267 | 12.0 | 22.0 | 0.00 | 0.00 | 0.00 | 54 | 1011.5 |
| 20260505225006 | 66 | 191 | 13.0 | 29.0 | 0.00 | 0.00 | 0.00 | 55 | 1011.5 |
| 20260505224506 | 66 | 260 | 11.0 | 29.0 | 0.00 | 0.00 | 0.00 | 55 | 1011.6 |
| 20260505224008 | 66 | 279 | 13.0 | 23.0 | 0.00 | 0.00 | 0.00 | 55 | 1011.7 |
| 20260505223504 | 66 | 267 | 12.0 | 22.0 | 0.00 | 0.00 | 0.00 | 56 | 1011.7 |
| 20260505223004 | 67 | 226 | 12.0 | 23.0 | 0.00 | 0.00 | 0.00 | 54 | 1011.8 |
| 20260505222504 | 67 | 267 | 13.0 | 24.0 | 0.00 | 0.00 | 0.00 | 56 | 1011.8 |
| 20260505222006 | 66 | 260 | 12.0 | 25.0 | 0.00 | 0.00 | 0.00 | 55 | 1011.8 |
| 20260505221504 | 66 | 264 | 12.0 | 24.0 | 0.00 | 0.00 | 0.00 | 55 | 1011.8 |
| 20260505221003 | 67 | 191 | 14.0 | 24.0 | 0.00 | 0.00 | 0.00 | 54 | 1011.9 |
| 20260505220504 | 66 | 300 | 14.0 | 26.0 | 0.00 | 0.00 | 0.00 | 55 | 1011.9 |
| 20260505220003 | 66 | 237 | 14.0 | 29.0 | 0.00 | 0.00 | 0.00 | 56 | 1012.0 |
| 20260505215503 | 66 | 258 | 12.0 | 29.0 | 0.00 | 0.00 | 0.00 | 56 | 1012.1 |
| 20260505215004 | 66 | 269 | 15.0 | 25.0 | 0.00 | 0.00 | 0.00 | 55 | 1012.1 |
| 20260505214506 | 66 | 265 | 13.0 | 26.0 | 0.00 | 0.00 | 0.00 | 54 | 1012.1 |
| 20260505214006 | 67 | 266 | 16.0 | 25.0 | 0.00 | 0.00 | 0.00 | 54 | 1012.1 |
| 20260505213503 | 66 | 265 | 12.0 | 25.0 | 0.00 | 0.00 | 0.00 | 55 | 1012.2 |
| 20260505213003 | 67 | 294 | 14.0 | 25.0 | 0.00 | 0.00 | 0.00 | 54 | 1012.1 |
| 20260505212504 | 66 | 243 | 13.0 | 28.0 | 0.00 | 0.00 | 0.00 | 55 | 1012.2 |
| 20260505212002 | 67 | 266 | 14.0 | 24.0 | 0.00 | 0.00 | 0.00 | 55 | 1012.2 |
| 20260505211502 | 67 | 232 | 15.0 | 30.0 | 0.00 | 0.00 | 0.00 | 55 | 1012.2 |
| 20260505211002 | 66 | 271 | 14.0 | 30.0 | 0.00 | 0.00 | 0.00 | 55 | 1012.3 |
| 20260505210501 | 67 | 282 | 13.0 | 22.0 | 0.00 | 0.00 | 0.00 | 55 | 1012.4 |
| 20260505210002 | 66 | 264 | 14.0 | 28.0 | 0.00 | 0.00 | 0.00 | 55 | 1012.3 |
| 20260505205501 | 66 | 257 | 15.0 | 28.0 | 0.00 | 0.00 | 0.00 | 53 | 1012.3 |
| 20260505205000 | 66 | 235 | 14.0 | 28.0 | 0.00 | 0.00 | 0.00 | 55 | 1012.5 |
| 20260505204500 | 66 | 263 | 12.0 | 27.0 | 0.00 | 0.00 | 0.00 | 54 | 1012.5 |
| 20260505204000 | 66 | 231 | 15.0 | 27.0 | 0.00 | 0.00 | 0.00 | 55 | 1012.5 |
| 20260505203500 | 66 | 274 | 13.0 | 25.0 | 0.00 | 0.00 | 0.00 | 56 | 1012.6 |
| 20260505203118 | 66 | 262 | 14.0 | 25.0 | 0.00 | 0.00 | 0.00 | 54 | 1012.6 |
| 20260505203002 | 66 | 241 | 14.0 | 25.0 | 0.00 | 0.00 | 0.00 | 53 | 1012.5 |
| 20260505202600 | 66 | 269 | 11.0 | 27.0 | 0.00 | 0.00 | 0.00 | 53 | 1012.5 |
| 20260505202059 | 66 | 325 | 13.0 | 27.0 | 0.00 | 0.00 | 0.00 | 54 | 1012.6 |
| 20260505201559 | 66 | 166 | 13.0 | 27.0 | 0.00 | 0.00 | 0.00 | 55 | 1012.7 |
| 20260505201058 | 66 | 232 | 13.0 | 24.0 | 0.00 | 0.00 | 0.00 | 55 | 1012.8 |
| 20260505200600 | 66 | 252 | 10.0 | 24.0 | 0.00 | 0.00 | 0.00 | 54 | 1012.8 |
| 20260505200100 | 66 | 191 | 11.0 | 25.0 | 0.00 | 0.00 | 0.00 | 56 | 1012.8 |